Flag for Japan Weather past 2 weeks in Yokosuka, Japan

Now
64 °F

Clear.


Feels Like: 64 °F
Forecast: 60 / 69 °F
Wind: 18 mph from South

Location: Tokyo International Airport

Current Time: Apr 29, 2015 at 1:05:45 AM

Latest Report: Apr 29, 2015 at 12:30 AM


Visibility: 10 mi

Pressure: 30.04 "Hg

Humidity: 78%

Dew point: 57 °F

Location of YokosukaLocation

Historic Weather in Yokosuka — Graph

°F

Yokosuka temperature yesterday

Maximum temperature yesterday: 75 °F (at 12:30 PM)
Minimum temperature yesterday: 63 °F (at 3:30 AM)
Average temperature yesterday: 68 °F

Past Weeks' High & Low Weather Summary

 TemperatureHumidityPressure
High75 °F (Apr 28, 12:30 PM)100% (Apr 14, 2:00 AM)30.21 "Hg (Apr 14, 2:00 AM)
Low50 °F (Apr 14, 12:00 AM)33% (Apr 26, 3:00 PM)29.47 "Hg (Apr 15, 4:30 PM)
Average62 °F73%29.93 "Hg
* Reported Midnight between Apr 13 and Apr 14 — Midnight between Apr 28 and Apr 29, Yokosuka, Weather by CustomWeather, © 2015

Note: Actual official high and low records may vary slightly from our data, if they occured in-between our weather recording intervals... More about our weather records

Advertising

Yokosuka weather history for previous 24 hours

 ConditionsComfort  
Time TempWeatherWind HumidityBarometerVisibility
12:00 AM
Wed, Apr 29
66 °FClear.17 mph73%30.04 "Hg10 mi
11:30 PM
Tue, Apr 28
64 °FClear.15 mph78%30.04 "Hg10 mi
11:00 PM64 °FClear.18 mph78%30.04 "Hg10 mi
10:30 PM64 °FClear.14 mph78%30.04 "Hg10 mi
10:00 PM64 °FClear.15 mph78%30.04 "Hg10 mi
9:30 PM64 °FClear.16 mph78%30.04 "Hg10 mi
9:00 PM66 °FClear.14 mph78%30.04 "Hg10 mi
8:30 PM66 °FClear.16 mph78%30.04 "Hg10 mi
8:00 PM66 °FClear.14 mph78%30.04 "Hg10 mi
7:30 PM66 °FClear.16 mph73%30.04 "Hg10 mi
7:00 PM68 °FClear.18 mph69%30.04 "Hg10 mi
6:30 PM68 °FClear.18 mph73%30.01 "Hg10 mi
6:00 PM68 °FSunny.13 mph73%30.01 "Hg10 mi
5:30 PM70 °FSunny.12 mph73%30.01 "Hg10 mi
5:00 PM70 °FSunny.13 mph69%30.01 "Hg10 mi
4:30 PM70 °FSunny.15 mph73%30.01 "Hg10 mi
4:00 PM72 °FSunny.16 mph65%30.01 "Hg10 mi
3:30 PM73 °FPartly sunny.16 mph65%30.01 "HgN/A
3:00 PM73 °FPartly sunny.15 mph61%30.01 "HgN/A
2:30 PM75 °FPartly sunny.18 mph54%30.01 "HgN/A
2:00 PM75 °FPartly sunny.18 mph57%30.01 "HgN/A
1:30 PM75 °FPartly sunny.17 mph57%30.04 "HgN/A
12:30 PM75 °FPartly sunny.20 mph61%30.04 "HgN/A
12:00 PM73 °FSunny.18 mph65%30.04 "Hg10 mi
11:30 AM73 °FSunny.16 mph69%30.04 "Hg10 mi
11:00 AM73 °FClear.15 mph65%30.07 "Hg6 mi
10:30 AM73 °FClear.14 mph65%30.07 "Hg6 mi
10:00 AM72 °FClear.13 mph69%30.07 "Hg5 mi
9:30 AM72 °FClear.13 mph69%30.07 "Hg4 mi
9:00 AM70 °FClear.9 mph69%30.07 "Hg4 mi
8:30 AM70 °FClear.10 mph73%30.07 "Hg4 mi
8:00 AM68 °FClear.9 mph73%30.07 "Hg4 mi
7:30 AM66 °FClear.3 mph78%30.07 "Hg4 mi
7:00 AM66 °FClear.1 mph73%30.07 "Hg4 mi
6:30 AM64 °FClear.3 mph78%30.07 "Hg4 mi
6:00 AM63 °FClear.7 mph83%30.07 "Hg4 mi
5:51 AM63 °FClear.8 mph83%30.07 "Hg4 mi
5:30 AM63 °FFog.7 mph88%30.04 "Hg2 mi
5:00 AM63 °FFog.6 mph88%30.04 "Hg2 mi
4:30 AM63 °FFog.2 mph88%30.04 "Hg3 mi
4:00 AM63 °FClear.5 mph88%30.04 "Hg4 mi
3:30 AM63 °FClear.3 mph88%30.04 "Hg4 mi
3:00 AM64 °FClear.7 mph83%30.01 "Hg4 mi
2:30 AM64 °FClear.6 mph83%30.01 "Hg4 mi
2:00 AM64 °FClear.7 mph83%30.01 "Hg4 mi
1:30 AM64 °FClear.9 mph83%30.01 "Hg5 mi
1:00 AM64 °FClear.12 mph83%30.01 "Hg5 mi
Weather by CustomWeather, © 2015

See weather overviewHow to use our weather pages